User: anonymous   Login
Location: ?ejeti?ky
(50.4060°N, 14.9016°E)
Time: 18:00:49
(UTC+00:00)
Language:

STARLINK-1333 - Orbit

View from above orbital plane
View from above orbital plane
View from above satellite
View from above satellite

Ground track
Ground track

The orbit data is extracted from the following two-line orbital elements,

1 45580C 20025BB  21213.50624260  .00004220  00000-0  28279-3 0  2133
2 45580  53.0559  73.7501 0001810  74.2170 349.1102 15.06385729    12
Epoch (UTC): 01 August 2021 12:08:59
Eccentricity: 0.0001810
inclination: 53.0559°
perigee height: 546 km
apogee height: 548 km
right ascension of ascending node: 73.7501°
argument of perigee: 74.2170°
revolutions per day: 15.06385729
mean anomaly at epoch: 349.1102°
orbit number at epoch: 1

The dashed part of the orbit path shows where the satellite is in the earth's shadow,  

DLR